TVARMINN Weather Reports


time (UTC)temp
C
wind
direction
speed
KPH
gust
KPH
rain 1hr
cm
rain 24hr
cm
rain mn
cm
humidity
%
barometer
mb
20260506110723 8 0.0 0.0 0.00 0.00 0.00 63 1014.8
20260506104724 8 0.0 0.0 0.00 0.00 0.00 65 1014.9
20260506102725 8 0.0 0.0 0.00 0.00 0.00 68 1014.7
20260506100725 8 0.0 0.0 0.00 0.00 0.00 68 1014.6
20260506094725 8 0.0 0.0 0.00 0.00 0.00 72 1014.5
20260506092725 8 0.0 0.0 0.00 0.00 0.00 51 1014.1
20260506090724 10 0.0 0.0 0.00 0.00 0.00 40 1014.0
20260506084726 10 0.0 0.0 0.00 0.00 0.00 39 1013.9
20260506082725 8 0.0 0.0 0.00 0.00 0.00 68 1013.9
20260506080724 7 0.0 0.0 0.00 0.00 0.00 72 1013.9
20260506072726 7 0.0 0.0 0.00 0.00 0.00 72 1013.6
20260506070725 8 0.0 0.0 0.00 0.00 0.00 68 1013.5
20260506060724 7 0.0 0.0 0.00 0.00 0.00 55 1013.2
20260506050724 6 0.0 0.0 0.00 0.00 0.00 64 1012.6
20260506044724 5 0.0 0.0 0.00 0.00 0.00 71 1012.4
20260506042724 5 0.0 0.0 0.00 0.00 0.00 77 1012.2
20260506040724 4 0.0 0.0 0.00 0.00 0.00 82 1012.1
20260506034724 3 0.0 0.0 0.00 0.00 0.00 88 1011.8
20260506032723 2 0.0 0.0 0.00 0.00 0.00 93 1011.6
20260506030724 2 0.0 0.0 0.00 0.00 0.00 92 1011.6
20260506024724 2 0.0 0.0 0.00 0.00 0.00 96 1011.4
20260506022723 2 0.0 0.0 0.00 0.00 0.00 98 1011.2
20260506020723 1 0.0 0.0 0.00 0.00 0.00 97 1011.0
20260506014723 1 0.0 0.0 0.00 0.00 0.00 97 1010.8
20260506012723 1 0.0 0.0 0.00 0.00 0.00 97 1010.6
20260506010724 1 0.0 0.0 0.00 0.00 0.00 96 1010.4
20260506004723 1 0.0 0.0 0.00 0.00 0.00 95 1010.3
20260506002723 1 0.0 0.0 0.00 0.00 0.00 95 1010.2
20260506000723 1 0.0 0.0 0.00 0.00 0.00 94 1010.0
20260505234723 1 0.0 0.0 0.00 0.00 0.00 94 1010.0
20260505232723 1 0.0 0.0 0.00 0.00 0.00 92 1009.9
20260505230723 1 0.0 0.0 0.00 0.00 0.00 90 1009.8
20260505224723 1 0.0 0.0 0.00 0.00 0.00 89 1009.8
20260505222722 1 0.0 0.0 0.00 0.00 0.00 87 1009.7
20260505220723 2 0.0 0.0 0.00 0.00 0.00 81 1009.6
20260505214723 2 0.0 0.0 0.00 0.00 0.00 77 1009.6
20260505212723 3 0.0 0.0 0.00 0.00 0.00 74 1009.4
20260505210722 3 0.0 0.0 0.00 0.00 0.00 74 1009.4
20260505204723 3 0.0 0.0 0.00 0.00 0.00 72 1009.2
20260505202723 3 0.0 0.0 0.00 0.00 0.00 74 1009.0
20260505200722 3 0.0 0.0 0.00 0.00 0.00 74 1008.8
20260505194722 3 0.0 0.0 0.00 0.00 0.00 73 1008.7
20260505192722 4 0.0 0.0 0.00 0.00 0.00 69 1008.7
20260505190722 4 0.0 0.0 0.00 0.00 0.00 67 1008.6
20260505184722 5 0.0 0.0 0.00 0.00 0.00 63 1008.5
20260505182721 5 0.0 0.0 0.00 0.00 0.00 61 1008.3
20260505180722 6 0.0 0.0 0.00 0.00 0.00 58 1008.1
20260505174722 6 0.0 0.0 0.00 0.00 0.00 55 1007.9
20260505172721 6 0.0 0.0 0.00 0.00 0.00 55 1007.8
20260505170721 7 0.0 0.0 0.00 0.00 0.00 59 1007.7
20260505164721 7 0.0 0.0 0.00 0.00 0.00 69 1007.7
20260505162721 7 0.0 0.0 0.00 0.00 0.00 67 1007.8
20260505160721 7 0.0 0.0 0.00 0.00 0.00 67 1007.6
20260505152721 7 0.0 0.0 0.00 0.00 0.00 69 1007.5
20260505150721 8 0.0 0.0 0.00 0.00 0.00 55 1007.4
20260505124720 8 0.0 0.0 0.00 0.00 0.00 51 1006.6
20260505122720 10 0.0 0.0 0.00 0.00 0.00 51 1006.4
20260505120720 9 0.0 0.0 0.00 0.00 0.00 53 1006.2
20260505114720 8 0.0 0.0 0.00 0.00 0.00 55 1006.1
20260505112721 8 0.0 0.0 0.00 0.00 0.00 56 1005.9